Fairfield, CA

12:28 AM PDT on October 17, 2017 (GMT -0700)
Travis Air Force Base

Weather History for KSUU - March, 2013

Change the Weather History Date:

Sunday, March 24, 2013

  Actual Average Record
Temperature  
Mean Temperature 54 °F -  
Max Temperature 73 °F 66 °F 80 °F (1997)
Min Temperature 35 °F 44 °F 35 °F (2013)
Degree Days  
Heating Degree Days 12    
Growing Degree Days 4 (Base 50)    
Moisture  
Dew Point 43 °F    
Average Humidity 65    
Maximum Humidity 99    
Minimum Humidity 28    
Precipitation  
Precipitation 0.00 in - - ()
Sea Level Pressure  
Sea Level Pressure 30.02 in    
Wind  
Wind Speed 7 mph (WSW)    
Max Wind Speed 17 mph    
Max Gust Speed -    
Visibility 10 miles    
Events Rain    
Averages and records for this station are not official NWS values.
T = Trace of Precipitation, MM = Missing Value Source: NWS Daily Summary

Daily Weather History Graph

Daily Weather History Graph

Search for Another Location

Airport or City:

Trip Planner

Search our weather history database for the weather conditions in past years. The results will help you decide how hot, cold, wet, or windy it might be!

Date:

Astronomy

Mar. 24, 2013 Rise Set
Actual Time 7:04 AM PDT 7:23 PM PDT
Civil Twilight 6:38 AM PDT 7:50 PM PDT
Nautical Twilight 6:07 AM PDT 8:21 PM PDT
Astronomical Twilight 5:35 AM PDT 8:52 PM PDT
Moon 4:59 PM PDT (3/24) 5:15 AM PDT (3/24)
Length of Visible Light 13h 12m
Length of Day
12h 19m
Waxing Gibbous, 92% of the Moon is Illuminated
Mar 24
Waxing Gibbous
Mar 27
Full
Apr 2
Last Quarter
Apr 10
New
Apr 18
First Quarter

Hourly Weather History & Observations

Time (PDT) Temp. Windchill Dew Point Humidity Pressure Visibility Wind Dir Wind Speed Gust Speed Precip Events Conditions
12:58 AM 48.9 °F - 45.3 °F 87% 30.06 in 10.0 mi WSW 11.5 mph - N/A   Clear
1:58 AM 50.4 °F - 46.8 °F 87% 30.06 in 10.0 mi WSW 10.4 mph - N/A   Clear
2:58 AM 47.5 °F - 46.4 °F 96% 30.07 in 10.0 mi WSW 8.1 mph - N/A   Clear
3:58 AM 44.1 °F 41.5 °F 43.9 °F 99% 30.06 in 10.0 mi SW 4.6 mph - N/A   Clear
4:58 AM 40.6 °F 37.5 °F 40.3 °F 99% 30.06 in 10.0 mi WSW 4.6 mph - N/A   Clear
5:58 AM 38.1 °F - 37.8 °F 99% 30.07 in 10.0 mi Calm Calm - N/A   Clear
6:58 AM 35.4 °F - 35.2 °F 99% 30.08 in 10.0 mi NNE 2.3 mph - N/A   Clear
7:58 AM 41.7 °F - 41.5 °F 99% 30.09 in 10.0 mi Calm Calm - N/A   Clear
8:58 AM 51.1 °F - 44.2 °F 77% 30.10 in 10.0 mi North 4.6 mph - N/A   Clear
9:58 AM 54.7 °F - 45.9 °F 72% 30.10 in 10.0 mi NNE 8.1 mph - N/A   Clear
10:58 AM 58.8 °F - 45.0 °F 60% 30.10 in 10.0 mi NE 5.8 mph - N/A   Clear
11:58 AM 62.6 °F - 46.2 °F 55% 30.09 in 10.0 mi Variable 4.6 mph - N/A   Clear
12:58 PM 65.3 °F - 45.5 °F 49% 30.08 in 10.0 mi Variable 1.2 mph - N/A   Clear
1:58 PM 68.0 °F - 43.0 °F 40% 30.05 in 10.0 mi Variable 2.3 mph - N/A   Clear
2:58 PM 69.8 °F - 36.1 °F 29% 30.02 in 10.0 mi SE 3.5 mph - N/A   Clear
3:58 PM 72.3 °F - 37.4 °F 28% 30.00 in 10.0 mi Variable 3.5 mph - N/A   Clear
4:20 PM 71.6 °F - 37.4 °F 29% 29.96 in 10.0 mi Variable 4.6 mph - N/A Rain Light Rain
4:23 PM 71.6 °F - 37.4 °F 29% 29.96 in 10.0 mi WSW 3.5 mph - N/A   Clear
4:47 PM 71.6 °F - 37.4 °F 29% 29.95 in 10.0 mi SSW 5.8 mph - N/A Rain Light Rain
4:49 PM 71.6 °F - 37.4 °F 29% 29.95 in 10.0 mi Variable 4.6 mph - N/A   Clear
4:58 PM 71.8 °F - 37.8 °F 29% 29.97 in 10.0 mi Variable 2.3 mph - 0.00 in   Clear
5:58 PM 70.5 °F - 46.8 °F 43% 29.96 in 10.0 mi SW 9.2 mph - N/A   Clear
6:58 PM 63.0 °F - 48.4 °F 59% 29.96 in 10.0 mi WSW 11.5 mph - N/A   Clear
7:58 PM 59.5 °F - 48.4 °F 67% 29.96 in 10.0 mi WSW 12.7 mph - N/A   Clear
8:58 PM 57.2 °F - 50.2 °F 77% 29.96 in 10.0 mi WSW 12.7 mph - N/A   Clear
9:58 PM 55.4 °F - 48.7 °F 78% 29.97 in 10.0 mi SW 15.0 mph - N/A   Clear
10:58 PM 53.4 °F - 46.6 °F 78% 29.97 in 10.0 mi WSW 17.3 mph - N/A   Clear
11:58 PM 52.3 °F - 48.4 °F 86% 29.97 in 10.0 mi WSW 16.1 mph - N/A   Clear